When you browse on this site, cookies collect data to enhance your experience and personalize the content and advertising you see.
Visit our Privacy Policy to learn more. By continuing to use the site, you agree to this use of cookies and data.
  • In Switzerland
  • List of Countries
  • For 7 days
  • Water Temperature
  • Weather Map
  • Weather Widgets
  • user-avatar
    Login

    Hourly Weather Maykovo

    Today, 21 August, Wednesday

    Time Temperature Precipitation Wind Pressure Humidity
    00:00 +20°C° 0 mm 1 mps 751 mmHg 80%
    01:00 +19°C° 0 mm 1 mps 751 mmHg 82%
    02:00 +17°C° 0 mm 0 mps 751 mmHg 83%
    03:00 +17°C° 0 mm 0 mps 751 mmHg 84%
    04:00 +19°C° 0 mm 1 mps 751 mmHg 84%
    05:00 +19°C° 0 mm 1 mps 751 mmHg 84%
    06:00 +21°C° 0 mm 1 mps 751 mmHg 80%
    07:00 +22°C° 0 mm 1 mps 751 mmHg 76%
    08:00 +22°C° 0 mm 0 mps 752 mmHg 72%
    09:00 +25°C° 0 mm 1 mps 752 mmHg 69%
    10:00 +26°C° 0 mm 1 mps 751 mmHg 65%
    11:00 +27°C° 0 mm 1 mps 751 mmHg 62%
    12:00 +28°C° 0 mm 1 mps 751 mmHg 61%
    13:00 +28°C° 0 mm 1 mps 751 mmHg 59%
    14:00 +29°C° 0 mm 1 mps 751 mmHg 57%
    15:00 +29°C° 0 mm 1 mps 751 mmHg 60%
    16:00 +28°C° 0 mm 1 mps 750 mmHg 64%
    17:00 +28°C° 0 mm 1 mps 750 mmHg 67%
    18:00 +26°C° 0 mm 1 mps 750 mmHg 71%
    19:00 +24°C° 0 mm 1 mps 750 mmHg 75%
    20:00 +23°C° 0 mm 1 mps 750 mmHg 79%
    21:00 +22°C° 0 mm 1 mps 750 mmHg 80%
    22:00 +21°C° 0 mm 2 mps 750 mmHg 82%
    23:00 +20°C° 0 mm 2 mps 750 mmHg 83%

    Tomorrow, 22 August, Thursday

    Time Temperature Precipitation Wind Pressure Humidity
    00:00 +20°C° 0 mm 2 mps 750 mmHg 85%
    01:00 +20°C° 0 mm 2 mps 750 mmHg 86%
    02:00 +19°C° 0 mm 2 mps 750 mmHg 87%
    03:00 +19°C° 0 mm 2 mps 749 mmHg 88%
    04:00 +19°C° 0 mm 2 mps 749 mmHg 89%
    05:00 +19°C° 0 mm 2 mps 749 mmHg 90%
    06:00 +20°C° 0 mm 2 mps 749 mmHg 85%
    07:00 +23°C° 0 mm 2 mps 749 mmHg 79%
    08:00 +25°C° 0 mm 2 mps 749 mmHg 74%
    09:00 +26°C° 0 mm 2 mps 749 mmHg 70%
    10:00 +27°C° 0 mm 2 mps 748 mmHg 66%
    11:00 +28°C° 0 mm 2 mps 748 mmHg 62%
    12:00 +28°C° 0.2 mm 2 mps 748 mmHg 63%
    13:00 +28°C° 0.2 mm 3 mps 748 mmHg 63%
    14:00 +28°C° 0.2 mm 3 mps 748 mmHg 64%
    15:00 +26°C° 0.6 mm 4 mps 749 mmHg 71%
    16:00 +25°C° 0.6 mm 4 mps 749 mmHg 78%
    17:00 +23°C° 0.6 mm 5 mps 749 mmHg 85%
    18:00 +21°C° 0.2 mm 5 mps 749 mmHg 86%
    19:00 +19°C° 0.2 mm 5 mps 750 mmHg 88%
    20:00 +17°C° 0.2 mm 5 mps 750 mmHg 90%
    21:00 +17°C° 0 mm 4 mps 751 mmHg 90%
    22:00 +15°C° 0 mm 4 mps 751 mmHg 90%
    23:00 +15°C° 0 mm 4 mps 751 mmHg 91%

    Day after tomorrow, 23 August, Friday

    Time Temperature Precipitation Wind Pressure Humidity
    00:00 +14°C° 0 mm 3 mps 751 mmHg 91%
    01:00 +14°C° 0 mm 3 mps 752 mmHg 92%
    02:00 +13°C° 0 mm 3 mps 752 mmHg 92%
    03:00 +13°C° 0 mm 3 mps 752 mmHg 93%
    04:00 +12°C° 0 mm 3 mps 752 mmHg 93%
    05:00 +12°C° 0 mm 3 mps 752 mmHg 94%
    06:00 +13°C° 0 mm 3 mps 752 mmHg 89%
    07:00 +16°C° 0 mm 3 mps 753 mmHg 84%
    08:00 +17°C° 0 mm 4 mps 753 mmHg 79%
    09:00 +19°C° 0 mm 3 mps 753 mmHg 74%
    10:00 +20°C° 0 mm 3 mps 753 mmHg 68%
    11:00 +21°C° 0 mm 3 mps 753 mmHg 62%
    12:00 +21°C° 0 mm 3 mps 753 mmHg 61%
    13:00 +22°C° 0 mm 3 mps 753 mmHg 59%
    14:00 +22°C° 0 mm 3 mps 753 mmHg 57%
    15:00 +22°C° 0 mm 3 mps 752 mmHg 61%
    16:00 +21°C° 0 mm 2 mps 752 mmHg 64%
    17:00 +21°C° 0 mm 2 mps 752 mmHg 68%
    18:00 +19°C° 0 mm 2 mps 752 mmHg 71%
    19:00 +18°C° 0 mm 1 mps 753 mmHg 74%
    20:00 +15°C° 0 mm 1 mps 753 mmHg 77%
    21:00 +15°C° 0 mm 1 mps 753 mmHg 79%
    22:00 +14°C° 0 mm 1 mps 753 mmHg 80%
    23:00 +14°C° 0 mm 1 mps 753 mmHg 82%

    24 August, Saturday

    Time Temperature Precipitation Wind Pressure Humidity
    00:00 +14°C° 0 mm 1 mps 753 mmHg 83%
    01:00 +13°C° 0 mm 1 mps 753 mmHg 84%
    02:00 +13°C° 0 mm 1 mps 753 mmHg 85%
    03:00 +13°C° 0 mm 1 mps 753 mmHg 85%
    04:00 +13°C° 0 mm 1 mps 753 mmHg 85%
    05:00 +13°C° 0 mm 1 mps 753 mmHg 85%
    06:00 +15°C° 0 mm 1 mps 753 mmHg 80%
    07:00 +16°C° 0 mm 1 mps 753 mmHg 74%
    08:00 +19°C° 0 mm 1 mps 753 mmHg 69%
    09:00 +21°C° 0 mm 1 mps 753 mmHg 64%
    10:00 +22°C° 0 mm 1 mps 753 mmHg 59%
    11:00 +22°C° 0 mm 0 mps 753 mmHg 54%
    12:00 +24°C° 0 mm 1 mps 753 mmHg 51%
    13:00 +24°C° 0 mm 1 mps 753 mmHg 49%
    14:00 +24°C° 0 mm 1 mps 752 mmHg 47%
    15:00 +24°C° 0 mm 1 mps 752 mmHg 51%
    16:00 +23°C° 0 mm 1 mps 752 mmHg 56%
    17:00 +23°C° 0 mm 1 mps 751 mmHg 60%
    18:00 +21°C° 0 mm 1 mps 751 mmHg 64%
    19:00 +19°C° 0 mm 1 mps 751 mmHg 68%
    20:00 +16°C° 0 mm 1 mps 751 mmHg 73%
    21:00 +16°C° 0 mm 1 mps 751 mmHg 74%
    22:00 +16°C° 0 mm 1 mps 751 mmHg 75%
    23:00 +15°C° 0 mm 2 mps 751 mmHg 76%

    25 August, Sunday

    Time Temperature Precipitation Wind Pressure Humidity
    00:00 +15°C° 0 mm 2 mps 751 mmHg 78%
    01:00 +14°C° 0 mm 2 mps 751 mmHg 80%
    02:00 +14°C° 0 mm 2 mps 751 mmHg 82%
    03:00 +14°C° 0 mm 2 mps 750 mmHg 84%
    04:00 +13°C° 0 mm 2 mps 750 mmHg 85%
    05:00 +13°C° 0 mm 2 mps 750 mmHg 87%
    06:00 +15°C° 0 mm 2 mps 750 mmHg 83%
    07:00 +17°C° 0 mm 2 mps 750 mmHg 79%
    08:00 +19°C° 0 mm 2 mps 750 mmHg 75%
    09:00 +20°C° 0 mm 3 mps 750 mmHg 70%
    10:00 +21°C° 0 mm 3 mps 750 mmHg 66%
    11:00 +22°C° 0 mm 3 mps 750 mmHg 61%
    12:00 +23°C° 0 mm 4 mps 750 mmHg 61%
    13:00 +23°C° 0 mm 4 mps 749 mmHg 61%
    14:00 +23°C° 0 mm 4 mps 749 mmHg 60%
    15:00 +22°C° 0.5 mm 4 mps 749 mmHg 67%
    16:00 +21°C° 0.5 mm 4 mps 749 mmHg 74%
    17:00 +20°C° 0.5 mm 4 mps 749 mmHg 81%
    18:00 +19°C° 0.1 mm 3 mps 749 mmHg 84%
    19:00 +17°C° 0.1 mm 3 mps 750 mmHg 88%
    20:00 +16°C° 0.1 mm 3 mps 750 mmHg 91%
    21:00 +14°C° 0 mm 3 mps 751 mmHg 91%
    22:00 +13°C° 0 mm 3 mps 751 mmHg 90%
    23:00 +12°C° 0 mm 3 mps 752 mmHg 90%

    26 August, Monday

    Time Temperature Precipitation Wind Pressure Humidity
    00:00 +12°C° 0 mm 3 mps 752 mmHg 91%
    01:00 +11°C° 0 mm 3 mps 752 mmHg 92%
    02:00 +12°C° 0 mm 2 mps 753 mmHg 93%
    03:00 +10°C° 0 mm 2 mps 753 mmHg 94%
    04:00 +10°C° 0 mm 2 mps 753 mmHg 94%
    05:00 +10°C° 0 mm 2 mps 753 mmHg 94%
    06:00 +12°C° 0 mm 2 mps 754 mmHg 89%
    07:00 +13°C° 0 mm 3 mps 754 mmHg 84%
    08:00 +14°C° 0 mm 3 mps 755 mmHg 79%
    09:00 +17°C° 0 mm 3 mps 755 mmHg 73%
    10:00 +18°C° 0 mm 3 mps 755 mmHg 66%
    11:00 +19°C° 0 mm 3 mps 755 mmHg 60%
    12:00 +19°C° 0 mm 2 mps 755 mmHg 57%
    13:00 +20°C° 0 mm 2 mps 755 mmHg 54%
    14:00 +20°C° 0 mm 2 mps 754 mmHg 52%
    15:00 +20°C° 0 mm 2 mps 754 mmHg 56%
    16:00 +19°C° 0 mm 2 mps 754 mmHg 60%
    17:00 +20°C° 0 mm 1 mps 754 mmHg 64%
    18:00 +18°C° 0 mm 1 mps 754 mmHg 68%
    19:00 +15°C° 0 mm 1 mps 754 mmHg 71%
    20:00 +13°C° 0 mm 1 mps 754 mmHg 75%
    21:00 +13°C° 0 mm 1 mps 754 mmHg 77%
    22:00 +12°C° 0 mm 1 mps 754 mmHg 79%
    23:00 +12°C° 0 mm 1 mps 754 mmHg 80%
    Show more